Weather History for Olivia, MN

Change the Weather History Date:

Thursday, November 22, 2012

  Actual Average (KRWF) Record (KRWF)
Temperature  
Mean Temperature 40 °F -  
Max Temperature 57 °F 36 °F 61 °F (1974)
Min Temperature 23 °F 21 °F -2 °F (1935)
Degree Days  
Heating Degree Days 24    
Moisture  
Dew Point 32 °F    
Average Humidity 75    
Maximum Humidity 93    
Minimum Humidity 55    
Precipitation  
Precipitation 0.01 in - - ()
Sea Level Pressure  
Sea Level Pressure 29.79 in    
Wind  
Wind Speed 16 mph (WNW)    
Max Wind Speed 36 mph    
Max Gust Speed 51 mph    
Visibility 9 miles    
Events Snow    
Averages and records for this station are not official NWS values.
T = Trace of Precipitation, MM = Missing Value Source: NWS Daily Summary

Daily Weather History Graph

Daily Weather History Graph

Search for Another Location

Airport:

Trip Planner

Search our weather history database for the weather conditions in past years. The results will help you decide how hot, cold, wet, or windy it might be!

Date:

Astronomy

Nov. 22, 2012 Rise Set
Actual Time 7:27 AM CST 4:45 PM CST
Civil Twilight 6:54 AM CST 5:17 PM CST
Nautical Twilight 6:18 AM CST 5:53 PM CST
Astronomical Twilight 5:43 AM CST 6:28 PM CST
Moon 1:42 PM CST (11/22) 1:35 AM CST (11/22)
Length of Visible Light 10h 22m
Length of Day
9h 18m
Waxing Gibbous, 71% of the Moon is Illuminated
Nov 22
Waxing Gibbous
Nov 28
Full
Dec 6
Last Quarter
Dec 13
New
Dec 19
First Quarter

Hourly Weather History & Observations

Time (CST) Temp. Windchill Dew Point Humidity Pressure Visibility Wind Dir Wind Speed Gust Speed Precip Events Conditions
12:11 AM 57.2 °F - 41.0 °F 55% 29.61 in 10.0 mi SSW 15.0 mph - N/A   Clear
12:31 AM 57.2 °F - 41.0 °F 55% 29.60 in 10.0 mi SSW 16.1 mph 20.7 mph N/A   Clear
12:51 AM 53.6 °F - 41.0 °F 62% 29.60 in 10.0 mi SSW 12.7 mph - N/A   Clear
1:11 AM 53.6 °F - 41.0 °F 62% 29.60 in 10.0 mi SSW 13.8 mph - N/A   Clear
1:31 AM 51.8 °F - 41.0 °F 67% 29.60 in 10.0 mi SSW 11.5 mph - N/A   Clear
1:51 AM 50.0 °F - 39.2 °F 66% 29.60 in 10.0 mi SSW 9.2 mph - N/A   Clear
2:11 AM 51.8 °F - 41.0 °F 67% 29.59 in 10.0 mi SSW 11.5 mph - N/A   Clear
2:30 AM 50.0 °F - 37.4 °F 62% 29.59 in 10.0 mi SSW 6.9 mph - N/A   Clear
2:51 AM 50.0 °F - 37.4 °F 62% 29.59 in 10.0 mi SW 9.2 mph - N/A   Clear
3:11 AM 51.8 °F - 39.2 °F 62% 29.59 in 10.0 mi SW 11.5 mph - N/A   Clear
3:31 AM 50.0 °F - 37.4 °F 62% 29.58 in 10.0 mi SW 11.5 mph - N/A   Clear
3:51 AM 50.0 °F - 37.4 °F 62% 29.58 in 10.0 mi SW 10.4 mph - N/A   Clear
4:11 AM 50.0 °F - 37.4 °F 62% 29.57 in 10.0 mi SW 10.4 mph - N/A   Clear
4:31 AM 50.0 °F - 37.4 °F 62% 29.58 in 10.0 mi SW 9.2 mph - N/A   Clear
4:51 AM 50.0 °F - 37.4 °F 62% 29.59 in 10.0 mi SW 8.1 mph - N/A   Clear
5:11 AM 48.2 °F - 37.4 °F 66% 29.59 in 10.0 mi WSW 5.8 mph - N/A   Clear
5:31 AM 46.4 °F 42.4 °F 37.4 °F 71% 29.60 in 10.0 mi WSW 8.1 mph - N/A   Clear
5:51 AM 44.6 °F 40.7 °F 35.6 °F 71% 29.60 in 10.0 mi WSW 6.9 mph - N/A   Clear
6:11 AM 46.4 °F 41.9 °F 35.6 °F 66% 29.61 in 10.0 mi WSW 9.2 mph - N/A   Clear
6:31 AM 44.6 °F 39.7 °F 33.8 °F 66% 29.61 in 10.0 mi West 9.2 mph - N/A   Clear
6:51 AM 42.8 °F 38.6 °F 32.0 °F 66% 29.61 in 10.0 mi WNW 6.9 mph - N/A   Clear
7:11 AM 44.6 °F 42.2 °F 32.0 °F 61% 29.61 in 10.0 mi WNW 4.6 mph - N/A   Clear
7:30 AM 42.8 °F 38.6 °F 32.0 °F 66% 29.62 in 10.0 mi WNW 6.9 mph - N/A   Clear
7:51 AM 42.8 °F 38.0 °F 33.8 °F 70% 29.63 in 10.0 mi WNW 8.1 mph - N/A   Clear
8:11 AM 42.8 °F 35.8 °F 33.8 °F 70% 29.64 in 10.0 mi WNW 13.8 mph 18.4 mph N/A   Clear
8:31 AM 42.8 °F 34.5 °F 33.8 °F 70% 29.65 in 10.0 mi NW 18.4 mph 27.6 mph N/A   Clear
8:51 AM 42.8 °F 34.0 °F 33.8 °F 70% 29.67 in 10.0 mi NW 20.7 mph 27.6 mph N/A   Clear
9:11 AM 41.0 °F 31.6 °F 33.8 °F 76% 29.68 in 10.0 mi NW 20.7 mph 26.5 mph N/A   Clear
9:31 AM 41.0 °F 30.7 °F 33.8 °F 76% 29.68 in 10.0 mi NW 25.3 mph 32.2 mph N/A   Scattered Clouds
9:51 AM 42.8 °F 32.9 °F 35.6 °F 76% 29.70 in 10.0 mi NW 26.5 mph 34.5 mph N/A   Overcast
10:10 AM 41.0 °F 30.5 °F 33.8 °F 76% 29.72 in 10.0 mi NW 26.5 mph 34.5 mph N/A   Overcast
10:31 AM 39.2 °F 28.0 °F 33.8 °F 81% 29.74 in 7.0 mi NW 26.5 mph 33.4 mph N/A   Overcast
10:51 AM 39.2 °F 29.6 °F 33.8 °F 81% 29.76 in 10.0 mi NW 19.6 mph 35.7 mph N/A   Overcast
11:11 AM 39.2 °F 29.0 °F 33.8 °F 81% 29.75 in 10.0 mi NW 21.9 mph 27.6 mph N/A   Overcast
11:31 AM 39.2 °F 28.5 °F 32.0 °F 75% 29.76 in 10.0 mi NW 24.2 mph 35.7 mph N/A   Overcast
11:51 AM 39.2 °F 28.5 °F 32.0 °F 75% 29.77 in 10.0 mi NW 24.2 mph 29.9 mph N/A   Overcast
12:11 PM 39.2 °F 28.5 °F 32.0 °F 75% 29.78 in 10.0 mi NW 24.2 mph 31.1 mph N/A   Overcast
12:31 PM 39.2 °F 28.5 °F 32.0 °F 75% 29.79 in 10.0 mi NW 24.2 mph 36.8 mph N/A   Overcast
12:51 PM 39.2 °F 29.6 °F 32.0 °F 75% 29.80 in 10.0 mi NW 19.6 mph 39.1 mph N/A   Overcast
1:10 PM 39.2 °F 27.8 °F 32.0 °F 75% 29.82 in 10.0 mi NW 27.6 mph 39.1 mph N/A   Overcast
1:31 PM 39.2 °F 29.0 °F 32.0 °F 75% 29.82 in 10.0 mi WNW 21.9 mph 33.4 mph N/A   Overcast
1:51 PM 37.4 °F 26.4 °F 32.0 °F 81% 29.84 in 10.0 mi NW 23.0 mph 32.2 mph N/A   Overcast
2:11 PM 33.8 °F 22.5 °F 32.0 °F 93% 29.84 in 1.5 mi NW 19.6 mph 33.4 mph N/A Snow Light Snow
2:31 PM 33.8 °F 22.2 °F 32.0 °F 93% 29.85 in 1.0 mi NW 20.7 mph 32.2 mph N/A Snow Light Snow
2:51 PM 33.8 °F 23.2 °F 32.0 °F 93% 29.87 in 2.5 mi NW 17.3 mph 27.6 mph N/A Snow Light Snow
3:11 PM 33.8 °F 24.3 °F 32.0 °F 93% 29.89 in 10.0 mi WNW 13.8 mph 27.6 mph 0.01 in   Overcast
3:31 PM 33.8 °F 22.5 °F 32.0 °F 93% 29.89 in 5.0 mi NW 19.6 mph 28.8 mph 0.01 in Snow Light Snow
3:50 PM 33.8 °F 22.8 °F 32.0 °F 93% 29.90 in 7.0 mi NW 18.4 mph 27.6 mph 0.01 in Snow Light Snow
4:11 PM 33.8 °F 22.8 °F 32.0 °F 93% 29.91 in 7.0 mi NW 18.4 mph 26.5 mph N/A Snow Light Snow
4:31 PM 33.8 °F 23.2 °F 32.0 °F 93% 29.92 in 7.0 mi WNW 17.3 mph 25.3 mph N/A Snow Light Snow
4:51 PM 33.8 °F 21.9 °F 32.0 °F 93% 29.93 in 10.0 mi WNW 21.9 mph 29.9 mph N/A   Overcast
5:11 PM 33.8 °F 21.6 °F 32.0 °F 93% 29.95 in 10.0 mi NW 23.0 mph 40.3 mph N/A   Overcast
5:31 PM 33.8 °F 20.8 °F 30.2 °F 87% 29.96 in 10.0 mi NW 26.5 mph 33.4 mph N/A   Overcast
5:51 PM 33.8 °F 21.3 °F 30.2 °F 87% 29.96 in 10.0 mi NW 24.2 mph 31.1 mph N/A   Overcast
6:11 PM 33.8 °F 20.5 °F 30.2 °F 87% 29.97 in 10.0 mi NW 27.6 mph 39.1 mph N/A   Overcast
6:31 PM 33.8 °F 20.1 °F 28.4 °F 81% 29.98 in 10.0 mi NW 29.9 mph 38.0 mph N/A   Overcast
6:51 PM 33.8 °F 21.0 °F 28.4 °F 81% 29.99 in 10.0 mi NW 25.3 mph 40.3 mph N/A   Overcast
7:11 PM 32.0 °F 18.1 °F 28.4 °F 87% 29.99 in 10.0 mi NW 27.6 mph 38.0 mph N/A   Overcast
7:31 PM 32.0 °F 20.1 °F 26.6 °F 80% 30.00 in 10.0 mi NW 19.6 mph 36.8 mph N/A   Overcast
7:51 PM 32.0 °F 18.6 °F 26.6 °F 80% 30.01 in 10.0 mi WNW 25.3 mph 39.1 mph N/A   Overcast
8:11 PM 32.0 °F 18.1 °F 23.0 °F 69% 30.01 in 10.0 mi WNW 27.6 mph 36.8 mph N/A   Overcast
8:31 PM 30.2 °F 15.4 °F 23.0 °F 75% 30.02 in 10.0 mi NW 28.8 mph 40.3 mph N/A   Overcast
8:51 PM 30.2 °F 15.4 °F 23.0 °F 75% 30.03 in 10.0 mi NW 28.8 mph 39.1 mph N/A   Overcast
9:11 PM 30.2 °F 15.7 °F 23.0 °F 75% 30.03 in 10.0 mi NW 27.6 mph 35.7 mph N/A   Overcast
9:31 PM 30.2 °F 16.5 °F 24.8 °F 80% 30.04 in 10.0 mi NW 24.2 mph 41.4 mph N/A   Overcast
9:51 PM 28.4 °F 13.8 °F 21.2 °F 74% 30.05 in 10.0 mi NW 25.3 mph 42.6 mph N/A   Overcast
10:11 PM 26.6 °F 10.6 °F 19.4 °F 74% 30.06 in 10.0 mi NW 28.8 mph 39.1 mph N/A   Overcast
10:31 PM 26.6 °F 10.8 °F 17.6 °F 69% 30.07 in 10.0 mi NW 27.6 mph 43.7 mph N/A   Mostly Cloudy
10:50 PM 26.6 °F 10.6 °F 17.6 °F 69% 30.08 in 10.0 mi NW 28.8 mph 47.2 mph N/A   Mostly Cloudy
11:11 PM 26.6 °F 11.1 °F 19.4 °F 74% 30.08 in 10.0 mi WNW 26.5 mph 38.0 mph N/A   Overcast
11:31 PM 24.8 °F 8.1 °F 17.6 °F 74% 30.09 in 10.0 mi NW 28.8 mph 41.4 mph N/A   Overcast
11:51 PM 23.0 °F 4.1 °F 17.6 °F 80% 30.10 in 10.0 mi NW 35.7 mph 50.6 mph N/A   Overcast